Weather History for Resia Pass, Italy

Change the Weather History Date:

Wednesday, April 3, 2013

  Actual Average Record
Temperature  
Mean Temperature 38 °F -  
Max Temperature 48 °F 46 °F 69 °F (2011)
Min Temperature 28 °F 28 °F 24 °F (2003)
Degree Days  
Heating Degree Days 27    
Moisture  
Dew Point 21 °F    
Average Humidity 58    
Maximum Humidity 93    
Minimum Humidity 24    
Precipitation  
Precipitation 0.00 in - - ()
Sea Level Pressure  
Sea Level Pressure 29.59 in    
Wind  
Wind Speed 6 mph ()    
Max Wind Speed 12 mph    
Max Gust Speed 22 mph    
Averages and records for this station are not official NWS values.
T = Trace of Precipitation, MM = Missing Value Source: Averaged Metar Reports

Daily Weather History Graph

Daily Weather History Graph

Search for Another Location

Airport:

Trip Planner

Search our weather history database for the weather conditions in past years. The results will help you decide how hot, cold, wet, or windy it might be!

Date:

Astronomy

Apr. 03, 2013 Rise Set
Actual Time 6:53 AM CEST 7:49 PM CEST
Civil Twilight 6:22 AM CEST 8:20 PM CEST
Nautical Twilight 5:45 AM CEST 8:57 PM CEST
Astronomical Twilight 5:06 AM CEST 9:36 PM CEST
Moon 2:45 AM CEST (4/3) 12:19 PM CEST (4/3)
Length of Visible Light 13h 58m
Length of Day
12h 56m
Waning Gibbous, 47% of the Moon is Illuminated
Apr 3
Waning Gibbous
Apr 10
New
Apr 18
First Quarter
Apr 25
Full
May 2
Last Quarter

Hourly Weather History & Observations

Time (CEST) Temp. Windchill Dew Point Humidity Pressure Visibility Wind Dir Wind Speed Gust Speed Precip Events Conditions
12:55 AM 33.8 °F 28.6 °F 23.0 °F 65% 29.53 in - North 5.8 mph - N/A   Clear
1:55 AM 33.8 °F 27.0 °F 23.0 °F 65% 29.56 in - North 8.1 mph - N/A   Clear
2:55 AM 32.0 °F 25.6 °F 23.0 °F 69% 29.56 in - North 6.9 mph - N/A   Clear
3:55 AM 32.0 °F 24.8 °F 26.6 °F 80% 29.56 in - North 8.1 mph 19.6 mph N/A   Clear
4:55 AM 30.2 °F 21.9 °F 24.8 °F 80% 29.59 in - North 9.2 mph 21.9 mph N/A   Clear
6:55 AM 28.4 °F 19.7 °F 26.6 °F 93% 29.59 in - North 9.2 mph - N/A   Clear
7:55 AM 28.4 °F 18.5 °F 26.6 °F 93% 29.59 in - North 11.5 mph - N/A   Clear
8:55 AM 28.4 °F 20.4 °F 26.6 °F 93% 29.62 in - North 8.1 mph 21.9 mph N/A   Clear
9:55 AM 32.0 °F 26.4 °F 24.8 °F 75% 29.62 in - NNE 5.8 mph 17.3 mph N/A   Clear
10:55 AM 33.8 °F 28.6 °F 24.8 °F 70% 29.62 in - NNE 5.8 mph 17.3 mph N/A   Clear
11:55 AM 41.0 °F 37.1 °F 17.6 °F 39% 29.62 in - NE 5.8 mph - N/A   Clear
12:55 PM 42.8 °F 38.0 °F 15.8 °F 34% 29.62 in - North 8.1 mph 20.7 mph N/A   Clear
1:55 PM 44.6 °F 40.7 °F 14.0 °F 29% 29.59 in - North 6.9 mph - N/A   Clear
2:55 PM 48.2 °F - 14.0 °F 25% 29.59 in - North 6.9 mph - N/A   Clear
3:55 PM 48.2 °F - 12.2 °F 24% 29.56 in - North 6.9 mph - N/A   Clear
4:55 PM 48.2 °F - 12.2 °F 24% 29.56 in - North 5.8 mph - N/A   Clear
5:55 PM 46.4 °F 43.5 °F 15.8 °F 29% 29.56 in - North 5.8 mph - N/A   Clear
6:55 PM 42.8 °F 41.1 °F 17.6 °F 36% 29.56 in - North 3.5 mph - N/A   Clear
7:55 PM 41.0 °F 38.0 °F 19.4 °F 42% 29.56 in - NNW 4.6 mph - N/A   Clear
8:55 PM 37.4 °F 33.8 °F 23.0 °F 56% 29.59 in - North 4.6 mph - N/A   Clear
9:55 PM 35.6 °F 31.7 °F 24.8 °F 65% 29.62 in - North 4.6 mph - N/A   Clear
10:55 PM 33.8 °F 30.8 °F 24.8 °F 70% 29.59 in - North 3.5 mph - N/A   Clear
11:55 PM 32.0 °F 27.5 °F 24.8 °F 75% 29.65 in - North 4.6 mph - N/A   Clear